OK1PHU-6 Weather Reports


Display with metric or nautical units.
time (UTC)temp
F
wind
direction
speed
MPH
gust
MPH
rain 1hr
in
rain 24hr
in
rain mn
in
humidity
%
barometer
mb
20260505023619 0 90 2.0 3.0 0.00 0.00 0.00 1010.1
20260505022538 0 135 2.0 3.0 0.00 0.00 0.00 1010.1
20260505021455 0 135 2.0 3.0 0.00 0.00 0.00 1010.1
20260505020411 0 90 2.0 3.0 0.00 0.00 0.00 1010.1
20260505015328 0 135 2.0 3.0 0.00 0.00 0.00 1010.2
20260505014245 0 135 2.0 2.0 0.00 0.00 0.00 1010.1
20260505013201 0 180 0.0 3.0 0.00 0.00 0.00 1010.1
20260505012118 0 270 1.0 2.0 0.00 0.00 0.00 1010.2
20260505011036 0 180 0.0 3.0 0.00 0.00 0.00 1010.1
20260505005950 0 23 3.0 9.0 0.00 0.01 0.00 1010.2
20260505004905 0 0 2.0 11.0 0.00 0.01 0.00 1009.6
20260505003822 0 180 2.0 5.0 0.00 0.01 0.00 1009.4
20260505002739 0 135 2.0 7.0 0.00 0.01 0.00 1009.6
20260505001657 0 90 2.0 10.0 0.00 0.01 0.00 1009.7
20260505000615 0 225 2.0 9.0 0.00 0.01 0.00 1009.9
20260504235530 0 180 7.0 12.0 0.00 0.01 0.00 1010.0
20260504234447 0 180 6.0 8.0 0.00 0.01 0.00 1010.0
20260504233404 0 135 3.0 9.0 0.00 0.01 0.00 1010.1
20260504232320 0 225 2.0 8.0 0.00 0.01 0.00 1010.2
20260504231237 0 135 6.0 9.0 0.00 0.01 0.00 1010.2
20260504230153 0 135 4.0 12.0 0.00 0.01 0.00 1010.3
20260504225109 0 180 4.0 9.0 0.00 0.01 0.00 1010.4
20260504224027 0 180 3.0 8.0 0.00 0.01 0.00 1010.5
20260504222942 0 90 5.0 12.0 0.00 0.01 0.00 1010.5
20260504221856 0 135 3.0 8.0 0.00 0.01 0.00 1010.7
20260504220810 0 90 2.0 7.0 0.00 0.01 0.00 1010.8
20260504215726 0 113 4.0 9.0 0.00 0.01 0.01 1010.9
20260504214641 0 135 3.0 6.0 0.00 0.01 0.01 1011.0
20260504213555 0 90 4.0 5.0 0.00 0.01 0.01 1011.0
20260504212508 0 90 2.0 5.0 0.00 0.01 0.01 1011.1
20260504211423 0 135 3.0 5.0 0.00 0.01 0.01 1011.2
20260504210340 0 180 2.0 6.0 0.00 0.01 0.01 1011.2
20260504205254 0 135 2.0 7.0 0.00 0.01 0.01 1011.2
20260504204212 0 90 2.0 6.0 0.00 0.01 0.01 1011.1
20260504203126 0 68 2.0 4.0 0.00 0.01 0.01 1011.1
20260504202040 0 180 2.0 9.0 0.00 0.01 0.01 1011.1
20260504200958 0 180 1.0 10.0 0.00 0.01 0.01 1011.1
20260504195914 0 0 2.0 9.0 0.00 0.01 0.01 1011.2
20260504194831 0 135 1.0 9.0 0.00 0.01 0.01 1011.2
20260504193747 0 90 3.0 6.0 0.00 0.01 0.01 1011.3
20260504192701 0 180 3.0 6.0 0.00 0.01 0.01 1011.3
20260504191619 0 90 5.0 6.0 0.00 0.01 0.01 1011.3
20260504190535 0 180 1.0 5.0 0.00 0.01 0.01 1011.5
20260504185452 0 90 2.0 3.0 0.00 0.01 0.01 1011.5
20260504184405 0 135 2.0 3.0 0.00 0.01 0.01 1011.4
20260504183328 0 135 2.0 3.0 0.00 0.01 0.01 1011.2
20260504182240 0 135 1.0 2.0 0.00 0.01 0.01 1011.0
20260504181158 0 135 1.0 2.0 0.00 0.01 0.01 1010.8
20260504180114 0 135 0.0 2.0 0.00 0.01 0.01 1010.6
20260504175033 0 135 1.0 2.0 0.00 0.01 0.01 1010.5
20260504173927 0 135 0.0 2.0 0.00 0.01 0.01 1010.4
20260504172812 0 90 3.0 3.0 0.00 0.01 0.01 1010.4
20260504171710 0 90 2.0 2.0 0.00 0.01 0.01 1010.3
20260504170626 0 135 1.0 1.0 0.00 0.01 0.01 1010.2
20260504160123 0 270 2.0 3.0 0.00 0.01 0.01 1010.3
20260504150747 0 270 2.0 5.0 0.00 0.01 0.01 1010.3
20260504140323 0 225 3.0 9.0 0.00 0.01 0.01 1010.9
20260504082002 0 315 5.0 9.0 0.00 0.01 0.01 1013.6
20260504080916 0 225 2.0 5.0 0.00 0.01 0.01 1013.5
20260504050613 0 180 4.0 11.0 0.00 0.01 0.01 1014.0
20260504045530 0 315 2.0 7.0 0.00 0.01 0.01 1013.7
20260504044446 0 270 2.0 12.0 0.00 0.01 0.01 1013.5
20260504043400 0 225 7.0 12.0 0.00 0.01 0.01 1013.3
20260504042316 0 135 5.0 9.0 0.00 0.01 0.01 1013.3
20260504041230 0 315 1.0 15.0 0.00 0.01 0.01 1013.2
20260504040147 0 180 7.0 15.0 0.00 0.01 0.01 1012.9
20260504035104 0 270 5.0 16.0 0.00 0.01 0.01 1012.8
20260504034017 0 203 4.0 21.0 0.00 0.01 0.01 1012.9
20260504032927 0 225 5.0 18.0 0.00 0.01 0.01 1012.8
20260504031840 0 180 8.0 21.0 0.00 0.01 0.01 1012.8
20260504030758 0 225 9.0 20.0 0.00 0.01 0.01 1012.9
20260504025713 0 225 10.0 18.0 0.00 0.01 0.01 1012.9
20260504024628 0 203 13.0 16.0 0.00 0.01 0.01 1013.0